Flag for Germany Weather past 2 weeks in Gera, Thuringia, Germany

Now
65 °F

Passing clouds.


Feels Like: 65 °F
Forecast: 57 / 75 °F
Wind: 5 mph from Northwest

Location: Gera-Leumnitz

Current Time: Jul 30, 2014 at 10:19:13 PM

Latest Report: Jul 30, 2014 at 10:00 PM


Visibility: 7 mi

Pressure: 29.88 "Hg

Humidity: 86%

Dew point: 61 °F

Location of GeraLocation

Historic Weather in Gera — Graph

°F

Gera temperature yesterday

Maximum temperature yesterday: 76 °F (at 2:00 PM)
Minimum temperature yesterday: 64 °F (at 7:00 AM)
Average temperature yesterday: 68 °F

Past Weeks' High & Low Weather Summary

 TemperatureHumidityPressure
High90 °F (Jul 20, 2:00 PM)98% (Jul 25, 5:00 AM)30.19 "Hg (Jul 25, 5:00 AM)
Low56 °F (Jul 26, 5:00 AM)25% (Jul 20, 6:00 PM)29.71 "Hg (Jul 29, 9:00 PM)
Average70 °F70%29.94 "Hg
* Reported Jul 15 9:00 PM — Jul 30 9:00 PM, Gera, Weather by CustomWeather, © 2014

Note: Actual official high and low records may vary slightly from our data, if they occured in-between our weather recording intervals... More about our weather records

Advertising

Gera weather history for previous 24 hours

 ConditionsComfort  
Time TempWeatherWind HumidityBarometerVisibility
9:00 PM
Jul 30
66 °FOvercast.2 mph85%29.86 "Hg11 mi
8:00 PM66 °FOvercast.3 mph84%29.83 "Hg10 mi
7:00 PM67 °FOvercast.5 mph83%29.81 "Hg8 mi
6:00 PM67 °FOvercast.5 mph86%29.80 "Hg8 mi
5:00 PM69 °FSprinkles. Overcast.6 mph81%29.79 "Hg7 mi
4:00 PM70 °FOvercast.5 mph82%29.78 "Hg14 mi
3:00 PM70 °FOvercast.3 mph81%29.77 "Hg14 mi
2:00 PM69 °FOvercast.3 mph81%29.77 "Hg16 mi
1:00 PM70 °FOvercast.3 mph80%29.76 "Hg11 mi
12:00 PM68 °FOvercast.2 mph87%29.77 "Hg9 mi
11:00 AM67 °FLow clouds.3 mph93%29.76 "Hg4 mi
10:00 AM65 °FFog.2 mph97%29.75 "Hg2 mi
9:00 AM65 °FFog.2 mph97%29.74 "Hg1 mi
8:00 AM64 °FFog.2 mph98%29.73 "Hg1 mi
7:00 AM64 °FFog.3 mph97%29.72 "Hg1 mi
6:00 AM64 °FFog.2 mph97%29.72 "Hg2 mi
5:00 AM64 °FFog.2 mph97%29.73 "Hg2 mi
4:00 AM64 °FFog.1 mph96%29.72 "Hg2 mi
3:00 AM64 °FFog.2 mph96%29.72 "Hg2 mi
2:00 AM64 °FFog.1 mph96%29.72 "Hg1 mi
1:00 AM64 °FFog.2 mph96%29.73 "Hg1 mi
12:00 AM65 °FFog.3 mph95%29.73 "Hg4 mi
11:00 PM
Jul 29
65 °FFog.2 mph96%29.73 "Hg2 mi
10:00 PM65 °FFog.2 mph95%29.72 "Hg4 mi
Weather by CustomWeather, © 2014

See weather overviewHow to use our weather pages